Regional Weather Roundup
Issued by NWS

Home | Current Version | Previous Version | Graphics & Text | Print | Product List | Glossary On
Versions: 1 2 3 4 5 6 7 8 9 10 11 12 13 14 15 16 17 18 19 20 21 22 23 24 25 26 27 28 29 30 31 32 33 34 35 36 37 38 39 40 41 42 43 44 45 46 47 48 49 50
000
ASUS43 KLOT 261800
RWRIL

ILLINOIS REGIONAL WEATHER ROUNDUP
NATIONAL WEATHER SERVICE CHICAGO/ROMEOVILLE IL
1200 PM CST WED NOV 26 2014

NOTE: "FAIR" INDICATES FEW OR NO CLOUDS BELOW 12,000 FEET WITH NO
SIGNIFICANT WEATHER AND/OR OBSTRUCTIONS TO VISIBILITY.

* THESE STATIONS ARE NOT UNDER NWS QUALITY CONTROL. THEY ALSO MAY NOT
  REPORT WEATHER SUCH AS PRECIPITATION OR FOG.

ILZ001-002-007-009-015-016-024-261900-
NORTHWEST ILLINOIS

CITY           SKY/WX    TMP DP  RH WIND       PRES   REMARKS
MOLINE         CLOUDY    28  23  81 E15       30.06F WCI  16
6HR MIN TEMP:  18; 6HR MAX TEMP:  28;

STERLING*      CLOUDY    27  21  80 E14       30.09F WCI  15
$$

ILZ003-004-008-010-011-017-018-261900-
NORTH CENTRAL ILLINOIS

CITY           SKY/WX    TMP DP  RH WIND       PRES   REMARKS
ROCKFORD       CLOUDY    25  19  78 SE8       30.13F WCI  16
6HR MIN TEMP:  16; 6HR MAX TEMP:  26; 6HR PCP: TRACE;

$$

ILZ005-006-012>014-019>023-261900-
NORTHEAST ILLINOIS

CITY           SKY/WX    TMP DP  RH WIND       PRES   REMARKS
CHICAGO-OHARE  CLOUDY    27  20  75 SE7       30.12F WCI  19
6HR MIN TEMP:  18; 6HR MAX TEMP:  27;

CHICAGO-MIDWAY CLOUDY    28  20  71 SE7       30.12F WCI  21
6HR MIN TEMP:  23; 6HR MAX TEMP:  28;

AURORA         CLOUDY    26  18  71 SE6       30.12F WCI  19
6HR MIN TEMP:  20; 6HR MAX TEMP:  26;

WAUKEGAN       CLOUDY    26  22  84 CALM      30.12F FOG
6HR MIN TEMP:  16; 6HR MAX TEMP:  26;

DUPAGE AIRPORT CLOUDY    26  19  74 SE9       30.11F WCI  17
6HR MIN TEMP:  19; 6HR MAX TEMP:  26;

WHEELING       CLOUDY    27  21  78 S5        30.14F HAZE    WCI  22
6HR MIN TEMP:  17; 6HR MAX TEMP:  27;

NORTHERLY ISL    N/A     27  21  78 SE6         N/A  WCI  21
$$

LMZ740>746-261900-
SOUTHERN LAKE MICHIGAN

STATION/POSITION SKY/WX   TEMP    WIND        PRES    VSBY  WAVE
                          AIR SEA DIR/SP/G                  HT/PER
                          (F)     (DEG/KT/KT) (MB)    (MI)  (FT/S)
SOUTHERN BUOY              31 42  150/ 12/ 16 1021.6F         1/ 3
WAUKEGAN HARBOR            26     230/  5/  6   N/A
HARRISON CRIB              26     140/ 11/ 15   N/A
BURNHAM HARBOR             27     160/  9/ 12   N/A
CALUMET HARBOR             26     100/  5/  9 1019.3F
MICHIGAN CITY              26      90/  7/  9   N/A
$$

ILZ025>027-034>036-040-047-049-050-058-095>099-261900-
WEST-CENTRAL ILLINOIS

CITY           SKY/WX    TMP DP  RH WIND       PRES   REMARKS
QUINCY         SNOW      32  29  88 SE9       29.96S VSB 1/2 WCI  24
$$

ILZ028>032-037-038-041>044-048-051>054-059>061-261900-
CENTRAL ILLINOIS

CITY           SKY/WX    TMP DP  RH WIND       PRES   REMARKS
DECATUR        CLOUDY    29  26  89 E12       30.06F FOG     WCI  19
PEORIA         PTSUNNY   32  25  75 E10       30.06F WCI  24
6HR MIN TEMP:  24; 6HR MAX TEMP:  32;

SPRINGFIELD    CLOUDY    33  28  81 SE16      30.04F WCI  23
6HR MIN TEMP:  26; 6HR MAX TEMP:  34;

TAYLORVILLE    NOT AVBL
$$

ILZ033-039-045-046-055>057-062-063-261900-
EAST-CENTRAL ILLINOIS

CITY           SKY/WX    TMP DP  RH WIND       PRES   REMARKS
CHAMPAIGN      CLOUDY    28  25  88 E7        30.08F WCI  21
MATTOON        CLOUDY    28  24  85 SE10      30.06F WCI  19
$$

ILZ079-100>102-261900-
SOUTHWEST ILLINOIS

CITY           SKY/WX    TMP DP  RH WIND       PRES   REMARKS
ALTON          CLOUDY    34  30  86 SE12      30.01F WCI  25
BELLEVILLE     PTSUNNY   35  32  90 E8        30.01F WCI  28
CAHOKIA*       CLOUDY    36  30  79 SE9       30.00F WCI  29
$$

ILZ064>066-069>071-074>076-080>082-084>086-088>090-092>094-261900-
SOUTH-CENTRAL ILLINOIS

CITY           SKY/WX    TMP DP  RH WIND       PRES   REMARKS
CARBONDALE     CLOUDY    39  28  64 SE10      30.03F WCI  32
6HR MIN TEMP:  18; 6HR MAX TEMP:  39;

MARION         CLOUDY    41  30  65 SE8       30.04F
MT. VERNON     PTSUNNY   36  28  75 E9        30.05F WCI  29
$$

ILZ067-068-072-073-078-083-087-091-261900-
SOUTHEAST ILLINOIS

CITY           SKY/WX    TMP DP  RH WIND       PRES   REMARKS
LAWRENCEVILLE  PTSUNNY   35  28  75 E5        30.09F WCI  31
$$

ABBREVIATIONS USED IN REMARKS
   TC - TEMPERATURE IN CELSIUS
  WCI - WIND CHILL INDEX
   HX - HEAT INDEX
  VSB - VISIBILITY
$$




USA.gov is the U.S. government's official web portal to all federal, state and local government web resources and services.